KY4OP-13 Weather Reports


time (UTC)temp
C
wind
direction
speed
KPH
gust
KPH
rain 1hr
cm
rain 24hr
cm
rain mn
cm
humidity
%
barometer
mb
20260510065758 11 261 0.0 0.0 0.00 0.00 0.00 89 1012.9
20260510065255 11 261 0.0 0.0 0.00 0.00 0.00 89 1013.0
20260510064752 11 276 0.0 0.0 0.00 0.00 0.00 88 1012.8
20260510064250 11 311 0.0 4.8 0.00 0.00 0.00 88 1013.0
20260510063746 11 75 0.0 0.0 0.00 0.00 0.00 86 1013.0
20260510063242 12 71 0.0 1.6 0.00 0.00 0.00 84 1012.9
20260510062739 12 65 0.0 1.6 0.00 0.00 0.00 82 1012.7
20260510062235 12 49 0.0 0.0 0.00 0.00 0.00 84 1012.6
20260510061730 12 48 1.6 3.2 0.00 0.00 0.00 85 1012.6
20260510061228 12 74 0.0 0.0 0.00 0.00 0.00 88 1012.7
20260510060724 11 74 3.2 3.2 0.00 0.00 0.00 92 1012.6
20260510060221 11 71 1.6 3.2 0.00 0.00 0.00 93 1012.8
20260510055717 11 67 1.6 1.6 0.00 0.00 0.00 93 1012.7
20260510055216 11 66 1.6 1.6 0.00 0.00 0.00 93 1012.6
20260510054716 11 80 1.6 1.6 0.00 0.00 0.00 94 1012.8
20260510054212 11 80 1.6 3.2 0.00 0.00 0.00 94 1013.0
20260510053711 11 74 3.2 3.2 0.00 0.00 0.00 94 1012.9
20260510053208 11 95 0.0 1.6 0.00 0.00 0.00 94 1012.9
20260510052703 11 188 0.0 0.0 0.00 0.00 0.00 94 1013.0
20260510052200 10 188 0.0 1.6 0.00 0.00 0.00 93 1013.0
20260510051656 10 208 0.0 0.0 0.00 0.00 0.00 93 1013.1
20260510051153 11 208 0.0 0.0 0.00 0.00 0.00 93 1013.0
20260510050650 11 208 0.0 0.0 0.00 0.00 0.00 93 1012.9
20260510050147 11 208 0.0 0.0 0.00 0.00 0.00 92 1013.0
20260510045643 11 208 0.0 1.6 0.00 0.00 0.00 92 1013.0
20260510045140 11 131 0.0 0.0 0.00 0.00 0.00 91 1012.9
20260510044636 11 74 0.0 0.0 0.00 0.00 0.00 91 1012.9
20260510044134 11 74 0.0 0.0 0.00 0.00 0.00 90 1013.1
20260510043630 11 74 0.0 0.0 0.00 0.00 0.00 90 1013.0
20260510043126 11 76 0.0 0.0 0.00 0.00 0.00 90 1013.0
20260510042624 12 76 0.0 0.0 0.00 0.00 0.00 90 1013.0
20260510042119 12 76 0.0 0.0 0.00 0.00 0.00 90 1012.9
20260510041617 12 76 0.0 0.0 0.00 0.00 0.00 89 1013.0
20260510041114 12 76 0.0 0.0 0.00 0.00 0.00 89 1012.7
20260510040611 12 91 0.0 0.0 0.00 0.00 0.00 89 1012.9
20260510040108 12 104 0.0 0.0 0.00 0.00 0.00 92 1013.2
20260510035604 11 104 0.0 0.0 0.00 0.00 0.00 92 1013.1
20260510035104 12 106 0.0 0.0 0.00 0.00 0.00 92 1013.1
20260510034601 12 119 0.0 0.0 0.00 0.00 0.00 91 1013.0
20260510034058 12 118 0.0 0.0 0.00 0.00 0.00 92 1012.9
20260510033549 12 118 0.0 0.0 0.00 0.00 0.00 91 1012.8
20260510033047 12 118 0.0 0.0 0.00 0.00 0.00 90 1012.8
20260510032543 12 118 0.0 0.0 0.00 0.00 0.00 90 1013.0
20260510032039 12 118 0.0 0.0 0.00 0.00 0.00 90 1012.7
20260510031539 12 118 0.0 0.0 0.00 0.00 0.00 88 1012.7
20260510031035 12 118 0.0 0.0 0.00 0.00 0.00 87 1012.5
20260510030531 13 118 0.0 0.0 0.00 0.00 0.00 87 1012.5
20260510030028 13 118 0.0 0.0 0.00 0.00 0.00 86 1012.6
20260510025525 13 118 0.0 0.0 0.00 0.00 0.00 86 1012.5
20260510025023 13 118 0.0 0.0 0.00 0.00 0.00 85 1012.6
20260510024519 13 118 0.0 0.0 0.00 0.00 0.00 85 1012.4
20260510024015 13 118 1.6 1.6 0.00 0.00 0.00 85 1012.6
20260510023511 13 229 0.0 0.0 0.00 0.00 0.00 83 1012.4
20260510023009 13 229 0.0 1.6 0.00 0.00 0.00 83 1012.2
20260510022508 14 206 0.0 0.0 0.00 0.00 0.00 81 1012.3
20260510022008 14 206 0.0 0.0 0.00 0.00 0.00 80 1012.1
20260510021505 14 206 0.0 0.0 0.00 0.00 0.00 80 1012.3
20260510021002 14 206 0.0 0.0 0.00 0.00 0.00 80 1012.2
20260510020456 14 206 0.0 0.0 0.00 0.00 0.00 80 1012.1
20260510015952 14 206 0.0 0.0 0.00 0.00 0.00 80 1012.0
20260510015448 15 206 0.0 0.0 0.00 0.00 0.00 79 1012.0
20260510014943 15 206 0.0 0.0 0.00 0.00 0.00 78 1011.8
20260510014441 15 206 0.0 0.0 0.00 0.00 0.00 78 1011.7
20260510013938 15 206 0.0 0.0 0.00 0.00 0.00 78 1011.6
20260510013432 15 206 0.0 0.0 0.00 0.00 0.00 77 1011.5
20260510012928 15 206 0.0 0.0 0.00 0.00 0.00 76 1011.4
20260510012423 15 206 0.0 0.0 0.00 0.00 0.00 75 1011.3
20260510011918 16 206 0.0 0.0 0.00 0.00 0.00 74 1011.4
20260510011413 16 206 0.0 0.0 0.00 0.00 0.00 73 1011.2
20260510010910 16 206 0.0 0.0 0.00 0.00 0.00 72 1010.9
20260510010407 16 206 0.0 0.0 0.00 0.00 0.00 71 1011.0
20260510005904 17 206 0.0 0.0 0.00 0.00 0.00 70 1010.9
20260510005400 17 206 0.0 1.6 0.00 0.00 0.00 69 1010.8
20260510004858 17 206 0.0 0.0 0.00 0.00 0.00 68 1010.9
20260510004355 17 206 0.0 1.6 0.00 0.00 0.00 68 1010.4
20260510003853 17 206 0.0 0.0 0.00 0.00 0.00 67 1010.5
20260510003349 18 206 0.0 1.6 0.00 0.00 0.00 65 1010.6
20260510002848 18 211 0.0 0.0 0.00 0.00 0.00 64 1010.5
20260510002346 18 211 0.0 1.6 0.00 0.00 0.00 63 1010.5
20260510001842 19 211 0.0 0.0 0.00 0.00 0.00 61 1010.3
20260510001340 20 212 0.0 0.0 0.00 0.00 0.00 60 1010.1
20260510000836 20 211 0.0 0.0 0.00 0.00 0.00 57 1010.2
20260510000334 20 212 0.0 0.0 0.00 0.00 0.00 57 1010.4
20260509235830 21 229 1.6 1.6 0.00 0.00 0.00 55 1010.2
20260509235327 21 217 3.2 3.2 0.00 0.00 0.00 55 1010.4
20260509234822 21 215 1.6 3.2 0.00 0.00 0.00 56 1010.2
20260509234319 21 221 3.2 3.2 0.00 0.00 0.00 55 1010.4
20260509233818 21 226 0.0 3.2 0.00 0.00 0.00 55 1010.1
20260509233315 22 236 1.6 3.2 0.00 0.00 0.00 53 1010.1
20260509232811 22 223 3.2 3.2 0.00 0.00 0.00 53 1010.0
20260509232308 22 224 1.6 3.2 0.00 0.00 0.00 53 1010.2
20260509231804 22 215 0.0 4.8 0.00 0.00 0.00 52 1010.0
20260509231301 23 230 1.6 3.2 0.00 0.00 0.00 51 1009.8
20260509230759 23 223 4.8 6.4 0.00 0.00 0.00 48 1010.0
20260509230256 23 209 3.2 3.2 0.00 0.00 0.00 49 1009.9
20260509225751 22 210 0.0 4.8 0.00 0.00 0.00 52 1010.1
20260509225247 23 220 6.4 6.4 0.00 0.00 0.00 48 1010.0
20260509224743 23 224 4.8 9.7 0.00 0.00 0.00 46 1010.0
20260509224241 23 206 3.2 6.4 0.00 0.00 0.00 47 1010.1
20260509223737 23 240 0.0 4.8 0.00 0.00 0.00 49 1010.1
20260509223234 23 275 8.0 9.7 0.00 0.00 0.00 45 1010.0
20260509222731 24 215 0.0 4.8 0.00 0.00 0.00 47 1009.9
20260509222226 23 251 3.2 4.8 0.00 0.00 0.00 48 1009.9
20260509221722 22 264 3.2 6.4 0.00 0.00 0.00 48 1009.8
20260509221219 22 224 1.6 6.4 0.00 0.00 0.00 49 1010.2
20260509220714 22 242 3.2 4.8 0.00 0.00 0.00 48 1009.9
20260509220211 22 224 4.8 6.4 0.00 0.00 0.00 49 1010.1
20260509215707 22 212 4.8 11.3 0.00 0.00 0.00 47 1010.1
20260509215204 23 162 3.2 9.7 0.00 0.00 0.00 48 1010.1
20260509214701 23 217 8.0 11.3 0.00 0.00 0.00 46 1010.2
20260509214158 22 191 4.8 9.7 0.00 0.00 0.00 46 1010.1
20260509213655 23 240 4.8 9.7 0.00 0.00 0.00 45 1009.9
20260509213150 23 250 4.8 9.7 0.00 0.00 0.00 46 1010.0
20260509212648 23 275 12.9 17.7 0.00 0.00 0.00 45 1010.1
20260509212144 23 272 9.7 14.5 0.00 0.00 0.00 44 1009.8
20260509211640 25 213 3.2 12.9 0.00 0.00 0.00 47 1010.0
20260509211137 25 261 4.8 6.4 0.00 0.00 0.00 42 1009.7
20260509210635 23 260 3.2 6.4 0.00 0.00 0.00 43 1009.8
20260509210132 22 226 0.0 6.4 0.00 0.00 0.00 49 1009.9
20260509205626 23 253 8.0 12.9 0.00 0.00 0.00 46 1009.7
20260509205121 24 114 1.6 3.2 0.00 0.00 0.00 46 1009.5
20260509204617 25 240 6.4 9.7 0.00 0.00 0.00 44 1009.6
20260509204114 24 258 6.4 6.4 0.00 0.00 0.00 46 1009.6
20260509203610 25 252 6.4 14.5 0.00 0.00 0.00 43 1009.8
20260509203108 24 230 9.7 14.5 0.00 0.00 0.00 45 1009.8
20260509202602 24 221 8.0 11.3 0.00 0.00 0.00 44 1009.7
20260509202058 24 190 9.7 14.5 0.00 0.00 0.00 44 1009.7
20260509201553 23 142 1.6 4.8 0.00 0.00 0.00 50 1010.0
20260509201051 23 207 3.2 6.4 0.00 0.00 0.00 47 1009.9
20260509200550 23 246 3.2 12.9 0.00 0.00 0.00 45 1009.8
20260509200047 24 245 12.9 14.5 0.00 0.00 0.00 46 1010.0
20260509195543 23 153 1.6 1.6 0.00 0.00 0.00 50 1009.9
20260509195038 24 242 9.7 22.5 0.00 0.00 0.00 45 1010.0
20260509194532 23 225 3.2 9.7 0.00 0.00 0.00 48 1009.9
20260509194031 25 121 3.2 9.7 0.00 0.00 0.00 47 1010.2
20260509193530 24 197 6.4 12.9 0.00 0.00 0.00 47 1010.4
20260509193027 23 213 9.7 11.3 0.00 0.00 0.00 51 1010.4
20260509192519 23 250 11.3 16.1 0.00 0.00 0.00 51 1010.5
20260509192013 23 216 9.7 12.9 0.00 0.00 0.00 50 1010.5
20260509191508 22 217 3.2 14.5 0.00 0.00 0.00 52 1010.6
20260509191004 22 220 4.8 6.4 0.00 0.00 0.00 50 1010.6
20260509190501 22 222 6.4 12.9 0.00 0.00 0.00 55 1010.6
20260509185959 21 103 3.2 6.4 0.00 0.00 0.00 54 1010.9
20260509185455 22 212 3.2 11.3 0.00 0.00 0.00 58 1011.0
20260509184952 22 198 6.4 9.7 0.00 0.00 0.00 49 1011.0
20260509184450 22 253 11.3 12.9 0.00 0.00 0.00 51 1011.1
20260509183947 21 263 8.0 14.5 0.00 0.00 0.00 57 1010.9
20260509183447 21 245 4.8 6.4 0.00 0.00 0.00 57 1011.1
20260509182944 21 221 4.8 11.3 0.00 0.00 0.00 57 1011.1
20260509182440 21 228 6.4 12.9 0.00 0.00 0.00 57 1011.1
20260509181937 21 231 4.8 9.7 0.00 0.00 0.00 59 1011.3
20260509181435 20 189 9.7 11.3 0.00 0.00 0.00 58 1011.6
20260509180932 21 221 4.8 9.7 0.00 0.00 0.00 58 1011.7
20260509180427 20 237 6.4 11.3 0.00 0.00 0.00 58 1011.6
20260509175924 20 210 1.6 12.9 0.00 0.00 0.00 61 1011.7
20260509175421 20 211 3.2 14.5 0.00 0.00 0.00 60 1012.0
20260509174917 20 273 6.4 9.7 0.00 0.00 0.00 61 1012.1
20260509174413 20 225 6.4 6.4 0.00 0.00 0.00 58 1012.4
20260509173910 20 211 4.8 6.4 0.00 0.00 0.00 60 1012.3
20260509173409 19 139 1.6 6.4 0.00 0.00 0.00 62 1012.3
20260509172906 19 220 4.8 6.4 0.00 0.00 0.00 60 1012.1
20260509172403 19 232 4.8 11.3 0.00 0.00 0.00 60 1012.3
20260509171858 19 215 3.2 9.7 0.00 0.00 0.00 62 1012.5
20260509171354 19 243 12.9 14.5 0.00 0.00 0.00 60 1012.6
20260509170851 19 177 1.6 3.2 0.00 0.00 0.00 61 1012.7
20260509170341 20 224 9.7 11.3 0.00 0.00 0.00 59 1012.5
20260509165836 20 213 0.0 1.6 0.00 0.00 0.00 64 1012.5
20260509165330 19 232 6.4 9.7 0.00 0.00 0.00 60 1012.5
20260509164827 19 248 6.4 9.7 0.00 0.00 0.00 61 1012.3
20260509164323 19 226 9.7 16.1 0.00 0.00 0.00 59 1012.2
20260509163819 19 254 8.0 12.9 0.00 0.00 0.00 60 1012.4
20260509163316 20 213 4.8 11.3 0.00 0.00 0.00 60 1012.3
20260509162815 20 270 9.7 12.9 0.00 0.00 0.00 57 1012.1
20260509162308 20 210 3.2 4.8 0.00 0.00 0.00 61 1012.2
20260509161805 20 242 6.4 9.7 0.00 0.00 0.00 61 1012.3
20260509161301 19 241 14.5 17.7 0.00 0.00 0.00 58 1012.4
20260509160756 20 267 9.7 14.5 0.00 0.00 0.00 59 1012.5
20260509160253 19 248 8.0 12.9 0.00 0.00 0.00 60 1012.3
20260509155748 20 175 6.4 14.5 0.00 0.00 0.00 59 1012.6
20260509155245 19 226 9.7 14.5 0.00 0.00 0.00 58 1012.3
20260509154741 19 174 4.8 9.7 0.00 0.00 0.00 60 1012.4
20260509154238 20 251 4.8 6.4 0.00 0.00 0.00 60 1012.5
20260509153736 20 227 6.4 11.3 0.00 0.00 0.00 59 1012.6
20260509153231 18 217 3.2 4.8 0.00 0.00 0.00 60 1012.6
20260509152727 18 222 3.2 4.8 0.00 0.00 0.00 62 1012.3
20260509152219 19 193 3.2 9.7 0.00 0.00 0.00 62 1012.3
20260509151716 18 220 3.2 4.8 0.00 0.00 0.00 61 1012.9
20260509151213 18 236 3.2 6.4 0.00 0.00 0.00 61 1012.9
20260509150711 19 227 8.0 14.5 0.00 0.00 0.00 60 1012.9
20260509150209 18 207 6.4 11.3 0.00 0.00 0.00 58 1012.7
20260509145705 18 205 6.4 9.7 0.00 0.00 0.00 58 1012.6
20260509145200 18 211 8.0 9.7 0.00 0.00 0.00 61 1012.6
20260509144657 18 222 4.8 6.4 0.00 0.00 0.00 59 1012.6
20260509144154 18 229 3.2 3.2 0.00 0.00 0.00 61 1012.7
20260509143651 17 267 1.6 12.9 0.00 0.00 0.00 63 1012.6
20260509143149 16 130 0.0 1.6 0.00 0.00 0.00 67 1012.7
20260509142644 16 241 4.8 12.9 0.00 0.00 0.00 64 1012.8
20260509142141 16 221 0.0 4.8 0.00 0.00 0.00 66 1012.9
20260509141637 16 187 6.4 9.7 0.00 0.00 0.00 64 1013.0
20260509141133 16 255 0.0 1.6 0.00 0.00 0.00 63 1013.2
20260509140630 15 233 1.6 4.8 0.00 0.00 0.00 69 1013.2
20260509140128 15 220 3.2 6.4 0.00 0.00 0.00 67 1013.3
20260509135625 15 242 3.2 4.8 0.00 0.00 0.00 66 1013.3
20260509135123 15 271 4.8 6.4 0.00 0.00 0.00 69 1013.6
20260509134619 15 226 3.2 4.8 0.00 0.00 0.00 69 1013.4
20260509134117 15 227 3.2 6.4 0.00 0.00 0.00 67 1013.4
20260509133614 14 159 0.0 4.8 0.00 0.00 0.00 70 1013.5
20260509133111 14 155 3.2 11.3 0.00 0.00 0.00 68 1013.6
20260509132609 14 246 3.2 4.8 0.00 0.00 0.00 66 1013.6
20260509132108 14 204 4.8 4.8 0.00 0.00 0.00 67 1013.5
20260509131603 14 219 4.8 4.8 0.00 0.00 0.00 68 1013.5
20260509131100 14 219 1.6 3.2 0.00 0.00 0.00 69 1013.4
20260509130556 14 196 6.4 6.4 0.00 0.00 0.00 68 1013.4
20260509130053 14 186 0.0 1.6 0.00 0.00 0.00 68 1013.4
20260509125549 14 221 0.0 1.6 0.00 0.00 0.00 70 1013.3
20260509125046 13 232 0.0 0.0 0.00 0.00 0.00 70 1013.5
20260509124542 13 218 0.0 0.0 0.00 0.00 0.00 70 1013.5
20260509124040 13 222 0.0 3.2 0.00 0.00 0.00 71 1013.6
20260509123538 13 228 0.0 3.2 0.00 0.00 0.00 70 1013.4
20260509123034 13 218 0.0 0.0 0.00 0.00 0.00 70 1013.4
20260509122530 13 218 0.0 0.0 0.00 0.00 0.00 70 1013.4
20260509122027 12 218 0.0 0.0 0.00 0.00 0.00 72 1013.5
20260509121524 12 220 0.0 0.0 0.00 0.00 0.00 71 1013.5
20260509121022 12 219 1.6 3.2 0.00 0.00 0.00 70 1013.4
20260509120520 12 208 0.0 0.0 0.00 0.00 0.00 71 1013.5
20260509120018 12 235 0.0 1.6 0.00 0.00 0.00 71 1013.5
20260509115514 12 238 0.0 0.0 0.00 0.00 0.00 71 1013.4
20260509115012 12 190 0.0 0.0 0.00 0.00 0.00 72 1013.4
20260509114510 12 218 0.0 1.6 0.00 0.00 0.00 70 1013.5
20260509114009 12 208 0.0 3.2 0.00 0.00 0.00 70 1013.5
20260509113507 12 187 1.6 4.8 0.00 0.00 0.00 69 1013.5
20260509113004 11 214 0.0 4.8 0.00 0.00 0.00 71 1013.3
20260509112500 11 195 0.0 1.6 0.00 0.00 0.00 71 1013.3
20260509111956 11 226 0.0 0.0 0.00 0.00 0.00 72 1013.4
20260509111454 11 226 0.0 0.0 0.00 0.00 0.00 72 1013.0
20260509110952 11 226 0.0 1.6 0.00 0.00 0.00 72 1013.2
20260509110448 11 226 0.0 0.0 0.00 0.00 0.00 72 1013.0
20260509105945 11 226 0.0 0.0 0.00 0.00 0.00 71 1013.1
20260509105444 11 226 0.0 1.6 0.00 0.00 0.00 71 1013.2
20260509104941 10 230 1.6 1.6 0.00 0.00 0.00 72 1013.2
20260509104437 10 275 0.0 0.0 0.00 0.00 0.00 73 1013.3
20260509103935 10 275 0.0 0.0 0.00 0.00 0.00 74 1013.2
20260509103432 10 275 0.0 0.0 0.00 0.00 0.00 72 1013.1
20260509102930 10 275 0.0 0.0 0.00 0.00 0.00 73 1013.1
20260509102427 10 274 0.0 0.0 0.00 0.00 0.00 72 1013.2
20260509101923 10 50 0.0 0.0 0.00 0.00 0.00 71 1013.2
20260509101419 11 50 0.0 0.0 0.00 0.00 0.00 70 1013.2
20260509100917 11 50 0.0 0.0 0.00 0.00 0.00 70 1013.1
20260509100414 11 49 0.0 0.0 0.00 0.00 0.00 70 1013.1
20260509095911 10 43 0.0 0.0 0.00 0.00 0.00 70 1013.2
20260509095408 10 35 0.0 0.0 0.00 0.00 0.00 71 1013.1
20260509094905 10 35 0.0 0.0 0.00 0.00 0.00 70 1013.1
20260509094401 11 35 0.0 0.0 0.00 0.00 0.00 70 1013.4
20260509093859 11 35 0.0 0.0 0.00 0.00 0.00 69 1013.5
20260509093356 11 35 0.0 0.0 0.00 0.00 0.00 68 1013.5
20260509092855 11 41 0.0 0.0 0.00 0.00 0.00 68 1013.6
20260509092352 11 41 0.0 0.0 0.00 0.00 0.00 68 1013.5
20260509091850 11 41 0.0 0.0 0.00 0.00 0.00 67 1013.4
20260509091347 11 41 0.0 0.0 0.00 0.00 0.00 66 1013.4
20260509090844 11 41 0.0 0.0 0.00 0.00 0.00 65 1013.4
20260509090342 11 41 0.0 0.0 0.00 0.00 0.00 65 1013.5
20260509085839 11 41 0.0 0.0 0.00 0.00 0.00 65 1013.5
20260509085336 11 41 0.0 0.0 0.00 0.00 0.00 65 1013.6
20260509084832 11 41 0.0 1.6 0.00 0.00 0.00 64 1013.5
20260509084329 11 44 0.0 1.6 0.00 0.00 0.00 65 1013.8
20260509083827 11 216 0.0 0.0 0.00 0.00 0.00 67 1013.7
20260509083323 11 216 0.0 0.0 0.00 0.00 0.00 67 1013.6
20260509082820 11 216 0.0 0.0 0.00 0.00 0.00 66 1013.7
20260509082316 11 216 0.0 0.0 0.00 0.00 0.00 66 1013.9
20260509081814 11 216 0.0 0.0 0.00 0.00 0.00 66 1013.9
20260509081311 11 216 0.0 0.0 0.00 0.00 0.00 66 1013.9
20260509080809 11 216 0.0 0.0 0.00 0.00 0.00 66 1013.9
20260509080307 11 216 0.0 0.0 0.00 0.00 0.00 65 1013.8
20260509075805 11 216 0.0 0.0 0.00 0.00 0.00 64 1013.8
20260509075305 11 216 0.0 0.0 0.00 0.00 0.00 64 1013.7
20260509074759 11 216 0.0 0.0 0.00 0.00 0.00 65 1013.8
20260509074257 11 226 0.0 0.0 0.00 0.00 0.00 64 1013.9
20260509073752 11 227 0.0 1.6 0.00 0.00 0.00 64 1013.8
20260509073249 11 216 0.0 0.0 0.00 0.00 0.00 64 1013.9
20260509072745 12 216 0.0 0.0 0.00 0.00 0.00 63 1014.1
20260509072242 12 216 0.0 0.0 0.00 0.00 0.00 62 1013.9
20260509071739 12 217 0.0 0.0 0.00 0.00 0.00 61 1014.1
20260509071236 12 216 3.2 3.2 0.00 0.00 0.00 59 1013.9
20260509070733 12 227 1.6 3.2 0.00 0.00 0.00 60 1013.9
20260509070230 12 243 1.6 3.2 0.00 0.00 0.00 59 1014.0